カタログに戻る

SJ-29B

運用中科学GEO
NORAD 67403·PAYLOAD·🇨🇳 China

打ち上げ Dec 30, 2025 から Wenchang Space Launch Site

Loading…

TLE

最新Source: Space-Track

元期: Sep 14, 2026, 17:34 UTC

1 67403U 25315C   26257.73228741 -.00000078  00000-0  00000+0 0  9997
2 67403   3.6183  92.9315 0006794  87.2149 150.7137  1.00274052  2589

AllMySatでSJ-29Bをリアルタイム追跡

Download on the App Store